Las Vegas, NV

2:43 AM PST on January 18, 2018 (GMT -0800)
McCarran International

Weather History for KLAS - February, 2014

Change the Weather History Date:

Sunday, February 9, 2014

  Actual Average Record
Temperature  
Mean Temperature 55 °F 52 °F  
Max Temperature 65 °F 61 °F 78 °F (2015)
Min Temperature 45 °F 42 °F 19 °F (1946)
Degree Days  
Heating Degree Days 10 13  
Month to date heating degree days 146 127  
Since 1 July heating degree days 1310 1479  
Cooling Degree Days 0 0  
Month to date cooling degree days 0 0  
Year to date cooling degree days 0 0  
Growing Degree Days 4 (Base 50)    
Moisture  
Dew Point 36 °F    
Average Humidity 50    
Maximum Humidity 65    
Minimum Humidity 34    
Precipitation  
Precipitation 0.00 in 0.03 in 0.68 in (1976)
Month to date precipitation T 0.20  
Year to date precipitation T 0.74  
Snow  
Snow 0.00 in 0.00 in 0.00 in (2015)
Month to date snowfall 0.0 0.0  
Since 1 July snowfall 0.0 0.2  
Snow Depth 0.00 in    
Sea Level Pressure  
Sea Level Pressure 29.99 in    
Wind  
Wind Speed 5 mph (SSW)    
Max Wind Speed 13 mph    
Max Gust Speed 14 mph    
Visibility 10 miles    
Events      
T = Trace of Precipitation, MM = Missing Value Source: NWS Daily Summary

Daily Weather History Graph

Daily Weather History Graph

Search for Another Location

Airport or City:

Trip Planner

Search our weather history database for the weather conditions in past years. The results will help you decide how hot, cold, wet, or windy it might be!

Date:

Astronomy

Feb. 09, 2014 Rise Set
Actual Time 6:34 AM PST 5:15 PM PST
Civil Twilight 6:07 AM PST 5:42 PM PST
Nautical Twilight 5:37 AM PST 6:12 PM PST
Astronomical Twilight 5:07 AM PST 6:42 PM PST
Moon 1:02 PM PST (2/9) 2:39 AM PST (2/9)
Length of Visible Light 11h 34m
Length of Day
10h 41m
Waxing Gibbous, 78% of the Moon is Illuminated
Feb 9
Waxing Gibbous
Feb 14
Full
Feb 22
Last Quarter
Mar 1
New
Mar 8
First Quarter

Hourly Weather History & Observations

Time (PST) Temp. Windchill Dew Point Humidity Pressure Visibility Wind Dir Wind Speed Gust Speed Precip Events Conditions
12:56 AM 50.0 °F - 36.0 °F 59% 30.07 in 10.0 mi SW 6.9 mph - N/A   Mostly Cloudy
1:56 AM 48.9 °F - 36.0 °F 61% 30.07 in 10.0 mi SW 5.8 mph - N/A   Mostly Cloudy
2:56 AM 48.0 °F - 36.0 °F 63% 30.05 in 10.0 mi SSW 5.8 mph - N/A   Mostly Cloudy
3:56 AM 46.9 °F - 36.0 °F 66% 30.04 in 10.0 mi SSW 6.9 mph - N/A   Mostly Cloudy
4:56 AM 46.0 °F 43.1 °F 36.0 °F 68% 30.04 in 10.0 mi SSW 5.8 mph - N/A   Scattered Clouds
5:56 AM 46.9 °F - 36.0 °F 66% 30.03 in 10.0 mi SSW 8.1 mph - N/A   Scattered Clouds
6:56 AM 46.0 °F 41.4 °F 36.0 °F 68% 30.04 in 10.0 mi SSW 9.2 mph - N/A   Scattered Clouds
7:56 AM 48.9 °F - 36.0 °F 61% 30.04 in 10.0 mi SSW 6.9 mph - N/A   Scattered Clouds
8:56 AM 53.1 °F - 37.0 °F 55% 30.04 in 10.0 mi South 4.6 mph - N/A   Scattered Clouds
9:56 AM 57.0 °F - 37.0 °F 47% 30.06 in 10.0 mi Calm Calm - N/A   Scattered Clouds
10:56 AM 57.9 °F - 36.0 °F 44% 30.04 in 10.0 mi Calm Calm - N/A   Mostly Cloudy
11:56 AM 61.0 °F - 36.0 °F 39% 30.01 in 10.0 mi Calm Calm - N/A   Mostly Cloudy
12:56 PM 63.0 °F - 37.0 °F 38% 29.97 in 10.0 mi Calm Calm - N/A   Scattered Clouds
1:56 PM 64.0 °F - 36.0 °F 35% 29.95 in 10.0 mi Calm Calm - N/A   Scattered Clouds
2:56 PM 64.0 °F - 36.0 °F 35% 29.94 in 10.0 mi Calm Calm - N/A   Mostly Cloudy
3:56 PM 64.9 °F - 36.0 °F 34% 29.94 in 10.0 mi Calm Calm - N/A   Mostly Cloudy
4:56 PM 64.0 °F - 36.0 °F 35% 29.94 in 10.0 mi SSW 4.6 mph - N/A   Mostly Cloudy
5:56 PM 62.1 °F - 36.0 °F 38% 29.94 in 10.0 mi SSW 5.8 mph - N/A   Mostly Cloudy
6:56 PM 61.0 °F - 36.0 °F 39% 29.94 in 10.0 mi SSW 6.9 mph - N/A   Mostly Cloudy
7:56 PM 59.0 °F - 37.0 °F 44% 29.94 in 10.0 mi SSW 5.8 mph - N/A   Mostly Cloudy
8:56 PM 55.0 °F - 37.0 °F 51% 29.94 in 10.0 mi SSW 3.5 mph - N/A   Mostly Cloudy
9:56 PM 54.0 °F - 36.0 °F 51% 29.94 in 10.0 mi SW 8.1 mph - N/A   Scattered Clouds
10:56 PM 53.1 °F - 36.0 °F 52% 29.94 in 10.0 mi SSW 8.1 mph - N/A   Scattered Clouds
11:56 PM 52.0 °F - 36.0 °F 54% 29.93 in 10.0 mi SSW 11.5 mph - N/A   Mostly Cloudy